Location: Trois-Rivi�res
(46.3500°N, 72.5500°W)
Time: 12:01:20
(UTC-04:00)

Vanguard 1 Rocket - Visible Passes

Search period start: 20 October 2017 00:00
Search period end: 30 October 2017 00:00
Orbit: 655 x 4222 km, 34.3° (Epoch: 19 October)

Date Brightness Start Highest point End Pass type
(mag) Time Alt. Az. Time Alt. Az. Time Alt. Az.
21 Oct 10.5 05:49:11 10° S 05:52:44 12° SSE 05:55:41 10° SE visible
23 Oct 10.2 05:49:26 10° SSW 05:55:55 18° SSE 06:00:34 10° ESE visible
24 Oct 10.6 04:38:34 10° S 04:44:33 15° SSE 04:49:07 10° SE visible
25 Oct 11.0 03:30:19 10° SSE 03:32:50 11° SSE 03:35:06 10° SE visible
25 Oct 9.9 05:50:38 10° SSW 05:59:05 23° SSE 06:04:36 10° ESE visible
26 Oct 10.3 04:38:38 10° SSW 04:47:41 20° SSE 04:53:48 10° ESE visible
27 Oct 10.7 03:30:33 13° S 03:35:54 16° SSE 03:42:04 10° ESE visible
27 Oct 9.7 05:52:16 10° SW 06:02:15 29° S 06:08:18 10° ESE visible
28 Oct 11.1 02:24:01 11° SSE 02:24:01 11° SSE 02:27:47 10° SE visible
28 Oct 10.1 04:41:21 13° SSW 04:50:47 26° SSE 04:57:49 10° ESE visible
29 Oct 10.5 03:34:43 20° S 03:38:57 22° SSE 03:46:43 10° ESE visible
29 Oct 9.6 05:54:10 10° SW 06:05:21 34° S 06:11:50 10° ESE visible
